Regional Weather Roundup
Issued by NWS Kansas City/Pleasant Hill, MO

Home | Current Version | Previous Version | Graphics & Text | Print | Product List | Glossary Off
Versions: 1 2 3 4 5 6 7 8 9 10 11 12 13 14 15 16 17 18 19 20 21 22 23 24 25 26 27 28 29 30 31 32 33 34 35 36 37 38 39 40 41 42 43 44 45 46 47 48 49 50

237
ASUS43 KEAX 210810
RWREAX

WEATHER ROUNDUP FOR EASTERN KANSAS AND NORTHWEST MISSOURI
NATIONAL WEATHER SERVICE KANSAS CITY/PLEASANT HILL MO
200 AM CST WED FEB 21 2018

KSZ040-057-103>105-MOZ028-029-037-043-210900-
...KANSAS CITY METROPOLITAN AREA...

CITY           SKY/WX    TMP DP  RH WIND       PRES   REMARKS
K.C. INTL      MOCLDY    17  13  84 N12       30.42S WCI   4
K.C. DOWNTOWN  PTCLDY    20  14  77 N13       30.44R WCI   7
LEES SUMMIT    CLOUDY    20  16  84 N14       30.41S WCI   7
OLATHE - IXD   CLOUDY    17  14  88 N15       30.42R WCI   2
OLATHE - OJC   CLOUDY    18  14  84 N13G23    30.39S WCI   5
LAWRENCE       MOCLDY    18  13  80 NW14      30.45R WCI   4

$$

MOZ001>008-011>017-020>025-030>033-038>040-044>046-053-054-210900-
...NORTHERN AND CENTRAL MISSOURI...

CITY           SKY/WX    TMP DP  RH WIND       PRES   REMARKS
ST. JOSEPH     PTCLDY    16  12  84 N12       30.48R WCI   3
MOSBY          PTSUNNY   21  16  79 N8        30.44S WCI  12
WARRENSBURG    MOCLDY    21  18  86 N6        30.40S WCI  14
WHITEMAN AFB   CLOUDY    23  18  80 CALM      30.35R
CLINTON        CLOUDY    23  19  86 CALM      30.40R
SEDALIA        CLOUDY    25  20  81 N18       30.40R WCI  11
WARSAW         NOT AVBL
CHILLICOTHE      N/A     20  16  84 N7        30.45R WCI  11
KIRKSVILLE     MOCLDY    21  18  88 NW12      30.41R WCI   9

$$

MOZ041-047>049-056>058-063>065-088>090-097-210900-
...EASTERN AND SOUTHERN MISSOURI...

CITY           SKY/WX    TMP DP  RH WIND       PRES   REMARKS
ST. LOUIS INTL RAIN      33  32  96 NW20      30.32R WCI  21
SPIRIT OF STL  FRZ RAIN  33  30  88 NW15G23   30.32R WCI  23
COLUMBIA       CLOUDY    26  23  88 N14       30.36R WCI  14
JEFFERSON CITY CLOUDY    28  23  81 N7        30.37S WCI  21
ROLLA          CLOUDY    29  28  96 N12       30.31R WCI  19
OSAGE BEACH    CLOUDY    27  25  92 N7        30.37R FOG     WCI  19
SPRINGFIELD    CLOUDY    27  25  92 N14       30.28R WCI  16
BRANSON        LGT RAIN  32  30  93 NW6       30.32R WCI  26
JOPLIN         CLOUDY    25  22  88 N13       30.34R WCI  14
WEST PLAINS    RAIN      34  32  92 N9        30.24R FOG     WCI  27

$$

IAZ060-094-KSZ022-034>040-054-083-096-NEZ052-066-093-210900-
...KANSAS...SOUTHEAST NEBRASKA AND IOWA...

CITY           SKY/WX    TMP DP  RH WIND       PRES   REMARKS
TOPEKA         CLEAR     17  12  80 N9        30.47R WCI   6
MANHATTAN      CLOUDY    17   9  70 N7        30.49R WCI   8
EMPORIA        CLOUDY    16  11  80 N13       30.43R WCI   2
WICHITA        CLOUDY    19  12  74 N18G25    30.43R WCI   4
OMAHA          CLEAR     11   4  73 N9        30.52R WCI  -2
LINCOLN        CLEAR      9   3  77 N7        30.53R WCI  -2
FALLS CITY     CLOUDY    13   7  77 N10       30.49R WCI   0
LAMONI         PTCLDY    16  10  77 N16       30.42R WCI   1
DES MOINES     MOCLDY    15   9  76 NW13      30.46R WCI   1

$$





USA.gov is the U.S. government's official web portal to all federal, state and local government web resources and services.